Regional Weather Roundup
Issued by NWS

Home | Current Version | Previous Version | Text Only | Print | Product List | Glossary Off
Versions: 1 2 3 4 5 6 7 8 9 10 11 12 13 14 15 16 17 18 19 20 21 22 23 24 25 26 27 28 29 30 31 32 33 34 35 36 37 38 39 40 41 42 43 44 45 46 47 48 49 50

092
ASUS44 KJAN 291703
RWRMS

MISSISSIPPI HOURLY WEATHER ROUNDUP
NATIONAL WEATHER SERVICE JACKSON MS
1200 PM CDT TUE JUL 29 2014

NOTE: "FAIR: INDICATES FEW OR NO CLOUDS BELOW 12,000 FEET WITH NO
SIGNIFICANT WEATHER AND/OR OBSTRUCTIONS TO VISIBILITY.

MSZ001>002-007>008-010>013-018>021-025>028-034>036-291800-
NORTHWEST MISSISSIPPI

CITY           SKY/WX    TMP DP  RH WIND       PRES   REMARKS
CLARKSDALE     FAIR      79  61  53 N12       30.14F
CLEVELAND      FAIR      80  65  61 NE8       30.11F
GREENWOOD      MOSUNNY   81  64  56 N9        30.10F
GREENVILLE     SUNNY     82  65  56 NE7       30.11F
GRENADA        FAIR      79  61  53 NW3       30.11F
OLIVE BRANCH   MOSUNNY   73  57  56 NE7       30.15F
OXFORD         FAIR      75  55  50 N8        30.14F
TUNICA         SUNNY     77  55  47 N13       30.14F
$$

MSZ003>006-009-014>017-022>024-029>033-037>039-291800-
NORTHEAST MISSISSIPPI

CITY           SKY/WX    TMP DP  RH WIND       PRES   REMARKS
BELMONT        PTSUNNY   73  57  56 N8        30.12F
COLUMBUS AFB   MOSUNNY   79  62  56 N10G17    30.09F
CORINTH        FAIR      75  54  46 N9        30.13F
GOLDN TRIANGLE PTSUNNY   82  63  51 N10       30.10F
STARKVILLE     FAIR      79  61  53 N7        30.09F
TUPELO         MOSUNNY   77  57  50 N9        30.11F
$$

MSZ040-058-291800-
CENTRAL MISSISSIPPI

CITY           SKY/WX    TMP DP  RH WIND       PRES   REMARKS
JACKSON INTL   MOSUNNY   86  64  47 NW8       30.09F
JACKSON HAWKNS SUNNY     85  62  46 W7        30.10S
MERIDIAN KEY   SUNNY     85  59  41 N9        30.07F
MERIDIAN NAS   PTSUNNY   83  61  47 N7        30.07F
RAYMOND        FAIR      82  77  83 NW5       30.10S HX  91
VICKSBURG      SUNNY     86  67  52 NW6       30.09F
$$

MSZ059>079-291800-
SOUTH MISSISSIPPI

CITY           SKY/WX    TMP DP  RH WIND       PRES   REMARKS
BROOKHAVEN     FAIR      82  64  54 CALM      30.12F
COLUMBIA       FAIR      84  66  54 VRB6G13   30.07F
HATTIESBURG    SUNNY     84  64  50 VRB3      30.08F
MCCOMB         SUNNY     84  62  47 VRB5      30.10F
NATCHEZ        SUNNY     82  66  57 N8        30.11F
PINE BELT      SUNNY     86  63  45 W6        30.09F
$$

MSZ080>082-291800-
COASTAL MISSISSIPPI

CITY           SKY/WX    TMP DP  RH WIND       PRES   REMARKS
BAY ST LOUIS   MOSUNNY  N/A N/A N/A NE9       30.07F
BILOXI         PTSUNNY   85  66  52 NE5       30.06F
PASCAGOULA     MOSUNNY   86  64  47 VRB6      30.05F
GULFPORT       PTSUNNY   89  64  43 VRB5      30.06S HX  90
$$



USA.gov is the U.S. government's official web portal to all federal, state and local government web resources and services.